الصفحة الرئيسية
METAR-TAF:

METAR-TAF

مطار :

بولدر, كولورادو, الولايات المتحدة

دائرة عرض: 40-02-22N, خط طول: 105-13-33W, ارتفاع: 1612 متر

مراقبة الطقس الحالي

تاريخ ووقت الإصدار 27 دقيقة قبل الساعة 12:07UTC
ريح 3 عقدة من الغرب/الجنوب الغربي
درجة الحرارة 8°درجة مئوية
الرطوبة 42%
ضغط 1004 hPa
الرؤية: 16.1 كم
سماء صافية

METAR: KBDU 201207Z AUTO 24003KT 10SM CLR 08/M04 A2964 RMK AO2

زمن: 05:34 (12:34 UTC)


TAF: مفقودة

أرصاد الطقس والتوقعات من أكثر من 4000 مطار (تقارير الطقس للمطار METAR والتنبؤ بالطقس بالمطارTAF).

المحطات المتاحة هي النقط الصفراء والحمراء على الخريطة.

حرك المؤشر فوق النقطة لمعرفة اسم المحطة.

ثم انقر لمعرفة أرصاد وتوقعات الطقس.

لتغيير الخارطة: اضغط على الأزرار الخضراء مع رمز الصليب الأسود للتكبير. على الزر الأخضر مع شرطة للتصغير، أو على الأسهم الخضراء للخرائط المجاورة.


METAR-TAF: